User: anonymous   Login
Location: Unspecified
(0.0000°N, 0.0000°E)
Time: 08:57:44
(UTC+00:00)
Language:

COSMOS 2532 - Orbit

View from above orbital plane
View from above orbital plane
View from above satellite
View from above satellite

Ground track
Ground track

The orbit is defined by the following mean orbital elements,

1 43753U          26145.64702552 +.00000000 +00000-0 -29726-4 0 00005
2 43753  82.5137 236.1147 0019398 106.6779 253.6432 12.42909054    01
Epoch (UTC): 25 May 2026 15:31:43
Eccentricity: 0.0019398
inclination: 82.5137°
perigee height: 1479 km
apogee height: 1510 km
right ascension of ascending node: 236.1147°
argument of perigee: 106.6779°
revolutions per day: 12.42909054
mean anomaly at epoch: 253.6432°

The dashed part of the orbit path shows where the satellite is in the earth's shadow,  

DLR